Regional Weather Roundup
Issued by NWS

Home | Current Version | Previous Version | Text Only | Print | Product List | Glossary Off
Versions: 1 2 3 4 5 6 7 8 9 10 11 12 13 14 15 16 17 18 19 20 21 22 23 24 25 26 27 28 29 30 31 32 33 34 35 36 37 38 39 40 41 42 43 44 45 46 47 48 49 50

000
ASUS43 KBIS 232210
RWRND

NORTH DAKOTA REGIONAL WEATHER ROUNDUP
NATIONAL WEATHER SERVICE BISMARCK ND
500 PM CDT WED APR 23 2014

NOTE: "FAIR" INDICATES FEW OR NO CLOUDS BELOW 12,000 FEET WITH NO
SIGNIFICANT WEATHER AND/OR OBSTRUCTIONS TO VISIBILITY.


NDZ001>003-009>011-017-232300-
NORTHWEST NORTH DAKOTA

CITY           SKY/WX    TMP DP  RH WIND       PRES   REMARKS
WILLISTON      LGT RAIN  47  42  83 W15       29.56R
MINOT          LGT RAIN  46  42  86 E25G35    29.56R
MINOT AFB      CLOUDY    45  45  99 SE25G35   29.56R
$$

NDZ018>021-031>035-040>046-232300-
SOUTHWEST NORTH DAKOTA

CITY           SKY/WX    TMP DP  RH WIND       PRES   REMARKS
BISMARCK       CLOUDY    56  45  66 SE14      29.58R
DICKINSON      PTSUNNY   55  35  47 W30G37    29.57R
GARRISON         N/A     51  44  77 SE9G21    29.54R
HETTINGER ARPT PTSUNNY   55  35  47 NW24G30   29.63R
$$

NDZ004>008-012>016-024-026-027-054-232300-
NORTHEAST NORTH DAKOTA

CITY           SKY/WX    TMP DP  RH WIND       PRES   REMARKS
GRAND FORKS    LGT RAIN  43  40  89 SE20      29.85F
GRND FRKS AFB  LGT RAIN  42  42  99 SE23G30   29.85S
DEVILS LAKE    CLOUDY    41  34  75 SE25G35   29.71F
$$

NDZ022-023-025-028>030-036>039-047>053-232300-
SOUTHEAST NORTH DAKOTA

CITY           SKY/WX    TMP DP  RH WIND       PRES   REMARKS
FARGO          LGT RAIN  43  39  86 E17G26    29.82F
JAMESTOWN      LGT RAIN  42  40  92 SE20G30   29.69S FOG
$$




USA.gov is the U.S. government's official web portal to all federal, state and local government web resources and services.